Location: Allaines
(49.9632°N, 2.9458°E)
Time: 04:20:25
(UTC+00:00)

Daily predictions for brighter satellites

Satellite Brightness Start Highest point End
(mag) Time Altitude Azimuth Time Altitude Azimuth Time Altitude Azimuth
USA 215 3.9 03:20:41 10° E 03:25:43 50° ENE 03:25:43 50° ENE
NOSS 3-3 (A) 4.5 03:44:27 80° ESE 03:44:27 80° ESE 03:52:22 10° SE
NOSS 3-3 (C) 4.5 03:44:32 80° ESE 03:44:32 80° ESE 03:52:27 10° SE
Cosmos 1943 Rocket 2.7 04:06:39 54° SE 04:07:11 56° ESE 04:12:43 10° NE
CZ-2C R/B 3.8 04:04:53 10° SE 04:09:59 41° ENE 04:13:24 19° N
CENTAUR R/B 2.7 04:16:08 58° S 04:17:16 70° SE 04:24:24 10° NE
Cosmos 2297 3.9 04:21:07 59° S 04:22:03 71° ESE 04:27:46 10° NNE
NOSS 3-2 (A) 3.2 04:27:49 80° WSW 04:28:11 87° NW 04:34:51 10° NE
Cosmos 2278 Rocket 3.7 04:33:50 24° N 04:33:50 24° N 04:36:32 10° NNE
Envisat 3.9 04:30:03 10° NNE 04:34:59 47° E 04:39:52 10° S
NOSS 3-2 (C) 3.6 04:33:35 38° SSW 04:35:48 67° SE 04:42:16 10° NE
SKYMED 2 4.0 04:32:24 10° SSE 04:36:40 59° ENE 04:37:12 54° NE
Cosmos 2098 Rocket 4.2 04:38:48 10° SSE 04:42:33 42° E 04:47:13 10° NNE
Meteor 2-3 Rocket 3.6 04:37:22 10° S 04:43:02 88° W 04:48:50 10° NNE
Cosmos 968 Rocket 3.6 04:42:38 20° SSW 04:46:14 74° ESE 04:51:22 10° NNE
Landsat 5 4.1 04:41:53 10° SSE 04:46:19 59° ENE 04:48:26 29° N
Cosmos 921 Rocket 3.1 04:50:35 70° S 04:50:35 70° S 04:54:34 10° SSE
DNEPR-1 R/B 3.9 04:53:15 56° NNW 04:54:14 77° NE 04:59:42 10° SE
Meteor 1-26 Rocket 4.2 04:53:51 37° NNW 04:56:10 64° W 05:01:53 10° S
Cosmos 1812 2.8 04:56:57 72° SE 04:56:57 72° SE 05:00:27 10° SSE
H-2A R/B 4.0 04:53:32 10° ESE 04:57:07 27° ENE 05:00:48 10° N
Cosmos 1151 Rocket 3.0 05:01:35 34° N 05:03:28 86° E 05:07:51 10° S
USA 238 DEB 3.5 05:00:10 28° SW 05:03:52 82° NW 05:10:51 10° NE
USA 238 3.5 05:00:13 28° SW 05:03:58 82° NW 05:10:57 10° NE
Cosmos 2344 3.6 05:03:34 35° WSW 05:06:48 61° NW 05:14:56 10° NE
Cosmos 1766 Rocket 4.0 05:02:59 10° S 05:07:15 61° E 05:11:32 10° NNE
USA 215 3.2 05:03:35 10° SE 05:10:05 68° SW 05:13:03 35° WNW
Kosmos-917 3.6 05:12:30 66° WNW 05:12:40 68° NW 05:17:55 10° NE
Meteor 1-31 Rocket 2.8 05:09:35 10° NNE 05:13:30 80° ESE 05:17:24 10° S
Cosmos 2279 Rocket 3.9 05:07:46 10° N 05:14:00 89° W 05:20:13 10° S
Cosmos 2297 Rocket 4.3 05:10:11 10° N 05:14:14 19° NE 05:18:16 10° E
Cosmos 1328 Rocket 3.5 05:12:41 16° N 05:16:09 83° E 05:20:30 10° SSE
IRAS Rocket 4.4 05:13:01 10° SSE 05:18:31 71° ENE 05:23:59 10° NNW
SJ-12 3.8 05:14:48 10° N 05:18:55 68° WNW 05:23:01 10° SSW
FALCON 9 DEB 2.9 05:21:07 73° WSW 05:21:24 87° SSE 05:24:49 10° ENE
Cosmos 2369 Rocket 2.1 05:16:05 10° SSW 05:21:41 90° ENE 05:27:20 10° NNE
Cosmos 1862 3.2 05:19:34 10° S 05:23:30 85° ESE 05:27:29 10° N
COSMO-SKYMED 1 2.7 05:20:34 10° S 05:24:46 48° W 05:25:48 39° WNW
H-2A R/B 2.7 05:23:17 10° N 05:26:54 52° WNW 05:30:32 10° SSW
Cosmos 1634 Rocket 4.2 05:22:59 10° NNW 05:28:58 48° W 05:34:54 10° SSW
CZ-4B R/B 3.7 05:32:47 10° NNE 05:36:16 45° E 05:39:42 10° S
Lacrosse 4 Rocket 4.0 05:34:50 10° N 05:36:21 11° NNE 05:37:51 10° NE
Tsikada Rocket 4.4 05:33:19 10° SW 05:39:00 37° WNW 05:44:48 10° N
CZ-4B R/B 3.3 05:37:49 10° SE 05:40:45 29° ENE 05:43:38 10° N
YAOGAN 6 4.1 05:38:36 10° N 05:40:14 21° NNW 05:40:14 21° NNW
Cosmos 783 Rocket 4.4 05:37:36 13° NNW 05:42:16 89° WSW 05:47:28 10° SSE
Cosmos 1408 Rocket 3.8 05:38:22 10° S 05:42:38 68° E 05:46:55 10° NNE
Cosmos 1656 Rocket 3.5 05:39:56 10° SSW 05:45:21 82° WNW 05:50:51 10° NNE
CZ-4C R/B 3.2 05:42:44 10° S 05:45:43 38° W 05:46:01 37° W
Cosmos 1503 Rocket 4.1 05:40:34 10° SSW 05:45:50 84° ESE 05:51:13 10° NNE
DMSP B5D2-2 4.0 05:40:57 10° SSE 05:46:10 80° WSW 05:51:25 10° NNW
Cosmos 2227 Rocket 4.1 05:45:17 10° NNW 05:49:47 23° NE 05:54:13 10° E
CZ-2C R/B 3.2 05:45:22 10° SSW 05:50:21 35° W 05:54:54 12° NNW
Cosmos 1943 Rocket 2.9 05:48:15 20° W 05:51:14 33° NW 05:56:19 10° NNE
Cosmos 1486 Rocket 4.1 05:48:21 10° SW 05:53:33 55° WNW 05:58:45 10° NNE
Cosmos 1515 Rocket 3.4 05:52:05 10° NNW 05:56:27 70° W 06:00:46 10° S
SL-8 R/B 4.3 05:54:22 20° W 05:57:17 45° SSW 06:01:50 10° SE
Meteor 2-15 4.4 05:51:40 10° NNW 05:57:40 65° W 06:03:38 10° S
FALCON 9 DEB 3.1 05:56:51 32° WNW 05:57:48 47° N 06:00:38 10° ENE
Meteor 1-27 Rocket 3.7 05:53:47 10° NNW 05:59:26 85° W 06:05:10 10° S
COSMOS 2487 3.4 06:00:18 10° N 06:03:32 43° ENE 06:06:45 10° SE
Cosmos 773 Rocket 4.0 05:58:41 10° NNW 06:03:54 67° WSW 06:09:02 10° S
FALCON 9 DEB 3.2 06:03:16 27° WNW 06:04:25 43° N 06:07:10 10° ENE
FALCON 9 DEB 3.2 06:05:16 25° WNW 06:06:30 42° N 06:09:15 10° ENE
SJ 16-02 2.2 06:02:53 10° S 06:07:09 54° ESE 06:11:27 10° NNE
NOAA 11 4.2 06:02:21 10° N 06:07:46 66° WNW 06:13:12 10° SSW
CENTAUR R/B 3.2 06:03:21 14° W 06:08:30 42° NNW 06:15:40 10° NE
Alouette 2 Rocket 3.3 06:05:53 10° NNW 06:09:59 83° ENE 06:13:31 10° SSE
NOAA 12 4.1 06:07:40 10° NNE 06:12:59 86° WNW 06:18:14 10° SSW
Meteor 2-19 Rocket 4.4 06:07:40 10° SSW 06:13:43 74° WNW 06:19:48 10° N
Envisat 3.8 06:09:28 10° N 06:13:48 29° WNW 06:18:06 10° WSW
Cosmos 1340 Rocket 3.0 06:11:28 10° S 06:15:24 76° E 06:19:25 10° NNE
SL-27 R/B 2.7 06:14:04 12° NW 06:17:10 48° WSW 06:20:36 10° S
Cosmos 2278 Rocket 4.1 06:15:42 10° NW 06:17:25 12° NNW 06:19:20 10° N
Cosmos 1500 Rocket 3.6 06:14:24 10° S 06:18:51 89° WNW 06:23:22 10° N
Cosmos 1939 Rocket 2.7 06:15:36 10° N 06:19:34 80° WNW 06:23:28 10° SSW
NOSS 3-2 (A) 4.3 06:15:14 13° W 06:19:57 33° NNW 06:26:15 10° NE
FALCON 9 DEB 3.2 06:21:30 16° WNW 06:23:30 43° N 06:26:18 10° ENE
Cosmos 2098 Rocket 4.2 06:20:34 10° WSW 06:23:54 23° WNW 06:27:54 10° N
NOSS 3-2 (C) 4.0 06:21:36 10° W 06:27:09 40° NNW 06:33:38 10° NE
Okean O Rocket 3.8 06:26:00 10° NNE 06:29:55 30° E 06:33:47 10° SSE
Cosmos 1805 Rocket 3.9 06:26:07 10° S 06:30:30 73° E 06:34:53 10° NNE
Sich 1 3.7 06:28:07 10° S 06:32:20 60° E 06:36:34 10° NNE
H-2A R/B 2.6 06:28:56 10° SSW 06:32:56 39° W 06:37:02 10° NNW
Cosmos 2026 Rocket 4.3 06:26:59 10° S 06:33:19 76° E 06:39:36 10° NNE
Meteor 1-25 Rocket 4.4 06:29:14 10° S 06:34:51 79° E 06:40:27 10° NNE
ATLAS 3B R/B 3.4 06:28:55 10° SSW 06:35:19 60° ESE 06:42:04 10° NE
ADEOS 4.2 06:33:14 10° N 06:37:56 35° WNW 06:42:37 10° SW
Cosmos 1174 3.8 06:35:41 10° SSW 06:38:36 59° ESE 06:41:44 10° NE
Cosmos 1500 3.9 06:35:14 10° S 06:38:59 58° E 06:42:44 10° NNE
ATLAS 5 CENTAUR R/B 2.0 06:35:17 10° SSW 06:39:05 61° SE 06:43:25 10° NE
Cosmos 158 Rocket 4.0 06:34:12 10° NNW 06:39:17 73° WSW 06:44:29 10° SSE
Cosmos 1515 4.0 06:41:16 10° NNW 06:44:56 47° W 06:48:36 10° SSW
Okean 1 3.3 06:41:58 10° N 06:45:57 85° W 06:49:54 10° S
Cosmos 1354 Rocket 4.4 06:41:10 10° SW 06:46:10 42° WNW 06:51:14 10° NNE
CZ-2C R/B 3.4 06:41:56 10° N 06:46:23 38° WNW 06:50:57 10° SW
Meteor 1-18 Rocket 4.4 06:46:13 10° NNW 06:52:09 86° E 06:57:56 10° SSE
